This is the latest recevied weather packets stored in our database for station/object N4HAC. If no packets are shown the sender has not sent any weather packets the latest 10 day(s).
| Time | Temp. | Humidity | Pressure | Rain* | Wind** | Luminosity | Snow |
|---|---|---|---|---|---|---|---|
| 1777944652 | 18.33° C | 60% | 1005.3 hPa | 0 mm | - | 0 W/m² | - |
| 1777944350 | 17.78° C | 60% | 1005.3 hPa | 0 mm | - | 0 W/m² | - |
| 1777944047 | 18.33° C | 58% | 1005.1 hPa | 0 mm | - | 0 W/m² | - |
| 1777943743 | 18.89° C | 57% | 1005.3 hPa | 0 mm | - | 0 W/m² | - |
| 1777943440 | 18.89° C | 57% | 1005.1 hPa | 0 mm | - | 0 W/m² | - |
| 1777943135 | 18.89° C | 57% | 1005.2 hPa | 0 mm | - | 0 W/m² | - |
| 1777942832 | 18.89° C | 56% | 1005.2 hPa | 0 mm | - | 0 W/m² | - |
| 1777942528 | 18.89° C | 55% | 1004.8 hPa | 0 mm | - | 0 W/m² | - |
| 1777942226 | 19.44° C | 55% | 1004.7 hPa | 0 mm | - | 0 W/m² | - |
| 1777941923 | 19.44° C | 54% | 1005 hPa | 0 mm | - | 0 W/m² | - |
| 1777941620 | 20° C | 54% | 1004.9 hPa | 0 mm | - | 0 W/m² | - |
| 1777941317 | 20° C | 53% | 1004.8 hPa | 0 mm | - | 0 W/m² | - |
| 1777941014 | 20.56° C | 53% | 1004.8 hPa | 0 mm | - | 0 W/m² | - |
| 1777940709 | 20.56° C | 51% | 1004.8 hPa | 0 mm | - | 0 W/m² | - |
| 1777940408 | 20.56° C | 51% | 1004.9 hPa | 0 mm | - | 0 W/m² | - |
| 1777940105 | 20.56° C | 50% | 1004.8 hPa | 0 mm | - | 1 W/m² | - |
| 1777939802 | 21.11° C | 49% | 1004.8 hPa | 0 mm | - | 1 W/m² | - |
| 1777939500 | 21.11° C | 49% | 1004.7 hPa | 0 mm | - | 2 W/m² | - |
| 1777939197 | 21.11° C | 49% | 1004.6 hPa | 0 mm | - | 4 W/m² | - |
| 1777938894 | 21.11° C | 49% | 1004.8 hPa | 0 mm | - | 6 W/m² | - |
| 1777938590 | 21.11° C | 49% | 1004.5 hPa | 0 mm | - | 9 W/m² | - |
| 1777938288 | 21.11° C | 49% | 1004.5 hPa | 0 mm | - | 15 W/m² | - |
| 1777937984 | 21.67° C | 48% | 1004.3 hPa | 0 mm | - | 15 W/m² | - |
| 1777937680 | 21.67° C | 48% | 1004.3 hPa | 0 mm | - | 20 W/m² | - |
| 1777937377 | 21.67° C | 47% | 1004.6 hPa | 0 mm | - | 24 W/m² | - |
* Rain latest hour (hover to see other rain measurements)
** Current wind speed in m/s (hover to see current wind gust speed)